User: anonymous   Login
Location: Ostrava
(49.8330°N, 18.2830°E)
Time: 15:30:51
(UTC+02:00)
Language:

Cosmos 2221 - Orbit

View from above orbital plane
View from above orbital plane
View from above satellite
View from above satellite

Ground track
Ground track

The orbit data is extracted from the following two-line orbital elements,

1 22236U 92080A   14296.40780872  .00002614  00000-0  29490-3 0  2894
2 22236 082.5095 252.4958 0016209 333.8625 026.1772 14.86142801183483
Epoch (UTC): 23 October 2014 09:47:14
Eccentricity: 0.0016209
inclination: 82.5095°
perigee height: 598 km
apogee height: 621 km
right ascension of ascending node: 252.4958°
argument of perigee: 333.8625°
revolutions per day: 14.86142801
mean anomaly at epoch: 26.1772°
orbit number at epoch: 18348

The dashed part of the orbit path shows where the satellite is in the earth's shadow,  

DLR